Location: Saint-Palais-sur-Mer
(45.6429°N, 1.0859°W)
Time: 01:14:15
(UTC+01:00)

Tiros 1 despin weight - Pass Details

Date: 08 February 2026
Orbit: 556 x 593 km, 48.2° (Epoch: 13 March)

Event Time Altitude Azimuth Distance (km) Brightness Sun altitude
Rises 02:00:43 0° 287° (WNW) 2,759 - -58.1°
Reaches altitude 10° 02:03:08 10° 277° (W) 1,866 - -58.0°
Maximum altitude 02:06:55 31° 215° (SW) 1,016 - -57.7°
Drops below altitude 10° 02:10:43 10° 153° (SSE) 1,880 - -57.5°
Sets 02:13:10 0° 143° (SE) 2,783 - -57.3°
